Chadron, NE

8:22 AM MDT on April 23, 2017 (GMT -0600)
Chadron Municipal

Weather History for KCDR - October, 2014

Change the Weather History Date:

Monday, October 20, 2014

  Actual Average Record
Temperature  
Mean Temperature 56 °F 46 °F  
Max Temperature 80 °F 62 °F 87 °F (1947)
Min Temperature 32 °F 30 °F 14 °F (1982)
Degree Days  
Heating Degree Days 9 19  
Month to date heating degree days 240 307  
Since 1 July heating degree days 404 518  
Cooling Degree Days 0 0  
Month to date cooling degree days 0 0  
Year to date cooling degree days 647 710  
Growing Degree Days 6 (Base 50)    
Moisture  
Dew Point 39 °F    
Average Humidity 61    
Maximum Humidity 96    
Minimum Humidity 26    
Precipitation  
Precipitation 0.00 in 0.04 in 0.42 in (2009)
Month to date precipitation 0.36 0.94  
Year to date precipitation 18.58 16.54  
Sea Level Pressure  
Sea Level Pressure 30.01 in    
Wind  
Wind Speed 10 mph (SSW)    
Max Wind Speed 24 mph    
Max Gust Speed 29 mph    
Visibility 10 miles    
Events Rain    
T = Trace of Precipitation, MM = Missing Value Source: NWS Daily Summary

Daily Weather History Graph

Daily Weather History Graph

Search for Another Location

Airport or City:

Trip Planner

Search our weather history database for the weather conditions in past years. The results will help you decide how hot, cold, wet, or windy it might be!

Date:

Astronomy

Oct. 20, 2014 Rise Set
Actual Time 7:11 AM MDT 6:01 PM MDT
Civil Twilight 6:43 AM MDT 6:30 PM MDT
Nautical Twilight 6:10 AM MDT 7:03 PM MDT
Astronomical Twilight 5:37 AM MDT 7:36 PM MDT
Moon 3:57 AM MDT (10/20) 4:29 PM MDT (10/20)
Length of Visible Light 11h 47m
Length of Day
10h 50m
Waning Crescent, 10% of the Moon is Illuminated
Oct 20
Waning Crescent
Oct 23
New
Oct 30
First Quarter
Nov 6
Full
Nov 14
Last Quarter

Hourly Weather History & Observations

Time (MDT) Temp. Windchill Dew Point Humidity Pressure Visibility Wind Dir Wind Speed Gust Speed Precip Events Conditions
12:53 AM 41.0 °F - 37.0 °F 86% 30.10 in 10.0 mi Calm Calm - N/A   Clear
1:53 AM 37.0 °F - 35.1 °F 93% 30.10 in 10.0 mi Calm Calm - N/A   Clear
2:53 AM 35.1 °F 32.2 °F 33.1 °F 92% 30.11 in 10.0 mi WSW 3.5 mph - N/A   Clear
3:53 AM 35.1 °F - 33.1 °F 92% 30.08 in 10.0 mi Calm Calm - N/A   Clear
4:53 AM 33.1 °F 30.0 °F 32.0 °F 96% 30.08 in 10.0 mi WSW 3.5 mph - N/A   Clear
5:53 AM 32.0 °F - 30.9 °F 96% 30.10 in 10.0 mi Calm Calm - N/A   Clear
6:53 AM 32.0 °F - 30.0 °F 92% 30.11 in 10.0 mi Calm Calm - N/A   Clear
7:53 AM 34.0 °F 29.8 °F 32.0 °F 92% 30.13 in 10.0 mi West 4.6 mph - N/A   Clear
8:53 AM 45.0 °F - 41.0 °F 86% 30.12 in 10.0 mi Calm Calm - N/A   Clear
9:53 AM 55.0 °F - 43.0 °F 64% 30.09 in 10.0 mi Calm Calm - N/A   Clear
10:53 AM 64.9 °F - 45.0 °F 48% 30.05 in 10.0 mi Calm Calm - N/A   Clear
11:53 AM 75.9 °F - 45.0 °F 33% 30.01 in 5.0 mi SSW 16.1 mph 24.2 mph N/A   Haze
12:53 PM 78.1 °F - 43.0 °F 29% 29.98 in 10.0 mi South 18.4 mph - N/A   Clear
1:53 PM 80.1 °F - 42.1 °F 26% 29.95 in 10.0 mi South 15.0 mph - N/A   Clear
2:53 PM 80.1 °F - 43.0 °F 27% 29.94 in 10.0 mi South 18.4 mph - N/A   Clear
3:53 PM 80.1 °F - 42.1 °F 26% 29.93 in 10.0 mi South 13.8 mph - N/A   Clear
4:53 PM 78.1 °F - 43.0 °F 29% 29.92 in 10.0 mi South 17.3 mph - N/A   Clear
5:53 PM 72.0 °F - 43.0 °F 35% 29.93 in 10.0 mi South 16.1 mph - N/A   Clear
6:53 PM 64.9 °F - 42.1 °F 43% 29.95 in 10.0 mi SSE 12.7 mph - N/A   Clear
7:53 PM 63.0 °F - 39.9 °F 43% 29.95 in 10.0 mi SSE 13.8 mph - N/A   Clear
8:53 PM 68.0 °F - 37.0 °F 32% 29.91 in 10.0 mi South 19.6 mph - N/A   Clear
9:53 PM 66.0 °F - 37.9 °F 36% 29.90 in 10.0 mi South 21.9 mph - 0.00 in Rain Light Rain
10:53 PM 64.0 °F - 37.9 °F 38% 29.88 in 10.0 mi South 17.3 mph - 0.00 in Rain Light Rain
11:53 PM 64.9 °F - 37.9 °F 37% 29.85 in 10.0 mi South 17.3 mph - 0.00 in Rain Light Rain